Location: Bijele Vode
(45.2833°N, 16.2000°E)
Time: 16:18:17
(UTC+00:00)

Cosmos 2298 Rocket - Pass Details

Date: 18 September 2020
Orbit: 776 x 783 km, 74.0° (Epoch: 21 October)

Event Time Altitude Azimuth Distance (km) Brightness Sun altitude
Rises 18:15:25 0° 181° (S) 3,256 7.1 -13.9°
Reaches altitude 10° 18:17:53 10° 175° (S) 2,332 6.3 -14.3°
Maximum altitude 18:22:54 45° 104° (ESE) 1,066 4.3 -15.2°
Drops below altitude 10° 18:27:57 10° 33° (NNE) 2,348 6.4 -16.0°
Sets 18:30:25 0° 27° (NNE) 3,280 7.2 -16.4°
